Location: Bleiche
(48.8000°N, 8.4500°E)
Time: 00:08:30
(UTC+00:00)

Daily predictions for brighter satellites

Satellite Brightness Start Highest point End
(mag) Time Altitude Azimuth Time Altitude Azimuth Time Altitude Azimuth
ADEOS II 4.4 00:59:42 10° NNE 01:01:33 20° NE 01:01:33 20° NE
ATLAS CENTAUR R/B 4.2 01:32:08 18° ENE 01:32:08 18° ENE 01:33:39 10° NE
Cosmos 1980 Rocket 4.2 01:30:31 10° NNW 01:41:00 - ESE 01:32:42 22° N
ATLAS 5 CENTAUR R/B 4.4 01:41:58 14° N 01:41:58 14° N 01:43:45 10° NNE
SL-16 R/B 4.3 01:51:00 20° NNW 01:51:00 20° NNW 01:52:50 10° NNW
ALOS 4.1 02:01:19 10° NE 02:05:10 27° E 02:05:10 27° E
Resurs 1-4 Rocket 3.9 02:01:04 10° N 02:03:14 23° N 02:03:14 23° N
IDEFIX/ARIANE 42P 3.9 02:02:45 10° N 02:05:39 33° N 02:05:39 33° N
Cosmos 1833 Rocket 3.2 02:13:00 56° NE 02:13:00 56° NE 02:17:25 10° NNE
CZ-2D R/B 3.8 02:16:38 10° N 02:18:59 23° NNW 02:18:59 23° NNW
CENTAUR R/B 3.5 02:27:13 31° SSE 02:28:52 36° ESE 02:35:02 10° NE
Lacrosse 4 Rocket 3.3 02:30:46 20° N 02:32:54 30° NE 02:36:49 10° ESE
CZ-2C R/B 4.1 02:29:33 10° SE 02:34:18 35° ENE 02:39:10 10° N
Helios 1B rocket 4.2 02:34:35 10° NE 02:38:07 27° E 02:39:02 25° ESE
Cosmos 1447 Rocket 4.3 02:32:04 10° N 02:38:24 82° W 02:38:46 78° SSW
Meteor 1-10 Rocket 4.1 02:39:08 84° ESE 02:39:12 84° E 02:44:54 10° NNE
Cosmos 2082 Rocket 2.5 02:38:49 54° SE 02:39:33 59° ESE 02:45:05 10° NE
ADEOS II 3.4 02:39:27 10° N 02:42:27 28° NNW 02:42:27 28° NNW
CZ-2C R/B 2.9 02:45:00 10° NNE 02:49:51 54° E 02:51:08 41° SSE
Cosmos 1624 Rocket 4.1 02:50:31 65° NNW 02:50:31 65° NNW 02:55:24 10° NNE
USA 307 3.8 02:51:30 43° NNE 02:51:30 43° NNE 02:54:39 10° ENE
USA 306 3.6 03:00:25 44° N 03:00:25 44° N 03:03:54 10° ENE
Cosmos 1459 Rocket 4.3 02:55:35 14° S 03:01:09 66° E 03:07:28 10° NNE
COSMOS 2406 3.1 03:01:52 66° WSW 03:02:35 77° WNW 03:08:18 10° NNE
BREEZE-M DEB (TANK) 3.6 03:04:00 31° SE 03:04:00 31° SE 03:07:10 10° ESE
NOSS 3-2 (A) 3.7 03:01:33 39° S 03:03:25 59° ESE 03:09:39 10° NE
Cosmos 1151 Rocket 4.5 03:06:29 26° NNW 03:06:29 26° NNW 03:08:40 10° N
Cosmos 1371 Rocket 4.3 03:06:18 48° NW 03:06:18 48° NW 03:11:05 10° NNE
Cosmos 1605 Rocket 4.2 03:06:05 46° WNW 03:06:05 46° WNW 03:11:53 10° N
ATLAS CENTAUR R/B 2.1 03:08:06 50° NW 03:08:06 50° NW 03:12:42 10° NNE
Meteor 2-13 Rocket 4.4 03:01:55 10° N 03:08:07 88° E 03:14:17 10° S
Cosmos 1328 Rocket 3.9 03:12:11 52° NNW 03:12:11 52° NNW 03:15:51 10° N
Cosmos 1933 Rocket 3.7 03:07:35 10° N 03:12:02 71° E 03:16:25 10° SSE
Cosmos 2322 Rocket 3.5 03:08:29 10° NNW 03:13:52 41° NE 03:19:11 10° ESE
IRS-1C 4.5 03:09:41 10° NNE 03:15:01 64° ESE 03:19:32 14° S
X-37B 3.4 03:18:10 11° SE 03:18:10 11° SE 03:18:15 10° SE
Meteor 1-11 Rocket 3.9 03:11:16 10° NNW 03:17:03 51° W 03:18:14 45° SW
Cosmos 1980 Rocket 3.6 03:23:06 21° S 03:23:06 21° S 03:25:04 10° S
Cosmos 1975 4.4 03:16:19 10° N 03:20:01 36° ENE 03:23:41 10° SE
SL-08 R/B 4.0 03:15:51 10° SSE 03:20:26 56° ENE 03:25:08 10° N
COSMOS 2455 4.1 03:15:52 10° NNW 03:21:31 39° NE 03:27:08 10° ESE
BREEZE M DEB (TANK) 4.3 03:16:14 26° SW 03:23:39 60° SSE 03:28:07 10° ENE
Cosmos 1850 Rocket 3.9 03:20:23 10° NNW 03:25:44 76° WSW 03:31:04 10° SSE
USA 308 3.5 03:25:30 40° NW 03:26:05 43° N 03:30:02 10° ENE
PAYLOAD A 3.8 03:21:16 10° NNE 03:26:08 76° WNW 03:28:15 35° SSW
Cosmos 44 Rocket 3.3 03:26:24 51° W 03:27:03 56° NW 03:31:43 10° NNE
SL-19 R/B 4.4 03:20:55 10° NNE 03:27:04 71° WNW 03:30:17 28° SSW
ATLAS 5 CENTAUR R/B 4.2 03:24:11 10° NNW 03:27:33 19° NNE 03:31:22 10° ENE
Meteor 2-9 Rocket 4.1 03:24:06 10° NNW 03:29:52 84° W 03:35:25 10° S
Cosmos 1802 Rocket 4.0 03:24:11 10° S 03:30:33 84° E 03:36:51 10° N
Cosmos 1725 Rocket 4.4 03:24:30 10° S 03:30:45 67° E 03:37:03 10° NNE
Cosmos 1378 3.2 03:30:12 34° S 03:31:39 71° E 03:35:18 10° NNE
CBERS-1 4.2 03:27:44 10° N 03:32:40 50° WNW 03:33:56 41° WSW
Cosmos 2056 Rocket 4.3 03:35:21 31° WNW 03:35:43 31° NW 03:40:17 10° N
Meteor 1-19 Rocket 4.1 03:32:43 10° S 03:38:05 90° ESE 03:43:33 10° NNE
Cosmos 2173 Rocket 3.8 03:33:19 16° SSW 03:38:12 69° WNW 03:44:18 10° N
Cosmos 1346 Rocket 4.3 03:40:21 22° NW 03:40:21 22° NW 03:42:27 10° N
Cosmos 1515 Rocket 3.6 03:37:57 39° SW 03:39:23 60° WNW 03:43:49 10° N
GP-B 3.2 03:35:52 10° S 03:40:17 76° E 03:44:44 10° N
ALOS 2.7 03:38:25 10° N 03:42:47 40° WNW 03:43:37 37° W
Cosmos 1461 2.7 03:42:22 44° SW 03:43:34 77° NW 03:47:49 10° NE
Cosmos 2278 3.8 03:38:35 10° NW 03:44:03 51° WSW 03:49:30 10° S
SL-16 R/B 2.2 03:38:57 10° NNW 03:44:41 86° ENE 03:50:21 10° SSE
USA 305 3.7 03:44:58 28° NW 03:46:32 39° N 03:50:24 10° ENE
IDEFIX/ARIANE 42P 4.5 03:44:14 10° NNW 03:46:26 13° NW 03:46:26 13° NW
FENGYUN 3A 4.3 03:45:01 10° N 03:49:53 35° WNW 03:51:35 29° W
METEOR-M 4.1 03:46:58 10° N 03:52:16 62° WNW 03:56:56 13° SSW
IRS-P3 4.1 03:49:37 10° N 03:54:57 70° WNW 04:00:14 10° SSW
CZ-3 R/B 4.4 03:39:43 16° SW 03:55:48 31° SSW 04:04:11 10° SE
SJ 16-02 4.2 03:53:30 10° NNE 03:56:12 16° NE 03:58:52 10° E
Cosmos 1833 Rocket 4.0 03:54:43 20° WNW 03:56:23 23° NW 04:00:48 10° N
Cosmos 1741 Rocket 4.2 03:52:23 10° NW 03:57:20 43° WSW 04:02:14 10° S
Cosmos 192 4.3 03:54:52 10° SSW 03:59:50 87° ESE 04:04:49 10° NNE
Cosmos 2228 Rocket 3.3 03:58:23 10° S 04:02:50 73° E 04:07:16 10° NNE
Spot 4 Rocket 4.2 03:59:58 10° NNE 04:05:07 75° ESE 04:10:14 10° S
Cosmos 2219 Rocket 3.9 04:00:02 10° NNW 04:05:08 33° NE 04:10:11 10° ESE
Cosmos 1331 Rocket 3.9 04:00:12 11° SSW 04:05:11 75° WNW 04:10:24 10° NNE
YAOGAN 6 2.5 04:01:56 10° N 04:05:34 71° WNW 04:09:08 10° SSW
Cosmos 1726 4.4 04:06:30 10° NNE 04:09:41 28° ENE 04:12:50 10° SE
Cosmos 1484 Rocket 2.9 04:06:48 10° N 04:10:43 54° WNW 04:14:33 10° SSW
Lacrosse 4 Rocket 1.9 04:07:30 10° NW 04:11:38 41° WSW 04:15:48 10° S
ARIANE 5 R/B 2.7 04:07:43 10° N 04:12:34 50° WNW 04:17:22 10° SW
Lacrosse 5 rocket 3.9 04:09:10 10° S 04:12:35 21° SE 04:16:00 10° ENE
Helios 1B rocket 3.2 04:09:36 10° N 04:13:14 31° WNW 04:15:11 21° WSW
CZ-2C R/B 3.0 04:09:39 10° SSW 04:14:32 38° W 04:19:34 10° NNW
Meteor 1-29 2.7 04:13:00 10° N 04:16:19 75° WNW 04:19:36 10° SSW
CZ-2C R/B 3.2 04:12:49 10° NNE 04:18:36 88° WNW 04:24:04 10° SSW
CENTAUR R/B 2.8 04:14:25 17° WSW 04:19:10 59° NW 04:26:28 10° NE
CZ-4C R/B 3.5 04:17:14 10° S 04:21:28 68° WSW 04:25:51 10° NNW
Cosmos 1110 Rocket 4.2 04:16:34 10° SW 04:21:34 52° WNW 04:26:39 10° NNE
Cosmos 2333 Rocket 3.0 04:15:58 10° NNW 04:21:36 55° ENE 04:27:09 10° SE
Cosmos 2016 Rocket 4.2 04:15:52 10° SSW 04:22:04 52° WNW 04:28:17 10° N
COSMO-SKYMED 1 2.9 04:19:38 10° SSE 04:23:57 70° ENE 04:28:17 10° N
Cosmos 2082 Rocket 3.2 04:20:42 17° W 04:24:01 29° NW 04:28:55 10° NNE
Cosmos 1707 Rocket 3.8 04:19:44 10° S 04:24:03 72° E 04:28:23 10° NNE
Okean 1 4.4 04:23:13 17° WSW 04:25:24 26° WNW 04:28:50 10° NNW
CZ-2C R/B 3.6 04:23:50 10° N 04:27:41 23° WNW 04:30:30 14° WSW
Cosmos 1869 Rocket 4.0 04:23:39 10° NNW 04:27:47 39° W 04:31:53 10° SSW
Cosmos 1452 Rocket 4.2 04:24:11 14° WSW 04:28:06 34° NW 04:32:55 10° N
Cosmos 2360 Rocket 2.2 04:23:00 10° NNW 04:28:40 89° ENE 04:34:17 10° SSE
USA 276 3.1 04:26:13 13° SW 04:28:41 39° SSE 04:31:32 10° E
Envisat 3.1 04:24:02 10° N 04:29:02 58° WNW 04:34:00 10° SSW
Meteor 1-18 Rocket 4.3 04:23:37 10° SSW 04:29:13 60° WNW 04:34:46 10° N
USA 307 3.8 04:27:02 13° WNW 04:30:28 40° N 04:34:22 10° ENE
Cosmos 968 Rocket 3.5 04:25:25 10° NNW 04:30:31 61° WSW 04:35:33 10° S
ERBS 4.3 04:28:56 10° NW 04:30:57 17° N 04:32:58 10° NE
Meteor 2-10 4.1 04:26:35 10° N 04:31:47 81° ENE 04:36:50 10° SSE
COSMOS 2487 4.0 04:31:03 10° S 04:33:37 30° ESE 04:36:11 10° NE
MINOTAUR 4 R/B 3.9 04:32:23 10° S 04:35:51 69° WSW 04:39:21 10° NNW
USA 306 3.7 04:35:54 10° WNW 04:39:47 41° N 04:43:42 10° E
H-2A R/B 2.8 04:36:29 10° N 04:40:04 52° WNW 04:43:38 10° SSW
Cosmos 2061 Rocket 4.3 04:36:38 10° SW 04:42:29 43° WNW 04:48:24 10° N
SL-24 R/B - RUBIN 2 4.1 04:38:52 11° WSW 04:42:48 40° NW 04:46:58 10° NNE
Cosmos 405 Rocket 4.3 04:40:30 10° SSE 04:44:12 41° E 04:47:59 10° NNE
PSLV R/B 3.5 04:40:59 10° N 04:45:17 64° WNW 04:49:30 10° SSW
Cosmos 1939 Rocket 4.2 04:41:41 10° NNE 04:45:33 44° E 04:49:20 10° S
Cosmos 1733 Rocket 3.0 04:42:28 10° NNW 04:46:53 70° W 04:51:15 10° S
ATLAS CENTAUR R/B 3.6 04:44:34 10° WNW 04:47:45 17° NNW 04:50:54 10° NNE
Cosmos 2344 4.3 04:40:44 10° NW 04:49:27 87° NE 05:01:38 10° SE
Cosmos 1066 Rocket 4.3 04:43:48 10° S 04:49:32 86° E 04:55:10 10° NNE
Meteor 2-4 Rocket 4.0 04:46:14 10° SW 04:51:43 46° WNW 04:57:04 10° N
COSMOS 2428 3.8 04:47:22 10° NNW 04:52:55 47° NE 04:58:24 10° SE
NOSS 3-2 (A) 4.1 04:49:11 10° W 04:54:35 39° NNW 05:00:55 10° NE
NOSS 3-2 (C) 3.6 04:49:35 10° WSW 04:55:06 57° NW 05:01:38 10° NE
Genesis I 4.3 04:51:13 10° SSW 04:55:07 50° ESE 04:59:03 10° NE
Cosmos 1975 4.0 04:53:08 10° NW 04:56:09 21° W 04:59:08 10° SW
Cosmos 2322 Rocket 2.7 04:52:39 10° NW 04:57:54 39° WSW 05:03:06 10° S
Cosmos 1437 Rocket 3.3 04:54:58 10° N 04:58:47 64° ENE 05:02:38 10° SSE
Cosmos 2333 4.2 04:53:21 10° NNW 04:59:03 85° WSW 05:04:40 10° SSE
CZ-2C R/B 3.1 04:56:34 10° N 05:00:11 43° WNW 05:03:51 10° SW
Cosmos 2233 Rocket 4.4 04:57:30 10° SW 05:03:27 42° WNW 05:09:26 10° N
